Time,TemperatureF,DewpointF,PressureIn,WindDirection,WindDirectionDegrees,WindSpeedMPH,WindSpeedGustMPH,Humidity,HourlyPrecipIn,Conditions,Clouds,dailyrainin,SoftwareType,DateUTC
2013-08-21 00:14:00,78.1,74.9,29.92,NNW,337,0.0,-999.0,90,-99.99,,,0.00,Acu-Link.com,2013-08-21 04:14:00,
2013-08-21 00:30:00,77.9,74.7,29.93,NE,45,0.0,-999.0,90,-99.99,,,0.00,Acu-Link.com,2013-08-21 04:30:00,
2013-08-21 00:45:00,77.5,74.3,29.92,WNW,292,0.0,-999.0,90,-99.99,,,0.00,Acu-Link.com,2013-08-21 04:45:00,
2013-08-21 01:00:00,77.4,74.2,29.92,NNW,337,0.0,-999.0,90,-99.99,,,0.00,Acu-Link.com,2013-08-21 05:00:00,
2013-08-21 01:15:00,77.0,73.8,29.92,East,90,0.0,-999.0,90,-99.99,,,0.00,Acu-Link.com,2013-08-21 05:15:00,
2013-08-21 01:31:00,76.8,74.0,29.92,East,90,0.0,-999.0,91,-99.99,,,0.00,Acu-Link.com,2013-08-21 05:31:00,
2013-08-21 01:46:00,76.6,73.8,29.92,ENE,67,0.0,-999.0,91,-99.99,,,0.00,Acu-Link.com,2013-08-21 05:46:00,
2013-08-21 02:01:00,76.6,73.8,29.92,ESE,112,0.0,-999.0,91,-99.99,,,0.00,Acu-Link.com,2013-08-21 06:01:00,
2013-08-21 02:17:00,76.6,73.8,29.92,NNW,337,0.0,-999.0,91,-99.99,,,0.00,Acu-Link.com,2013-08-21 06:17:00,
2013-08-21 02:32:00,76.8,74.0,29.92,East,90,0.0,-999.0,91,-99.99,,,0.00,Acu-Link.com,2013-08-21 06:32:00,
2013-08-21 02:47:00,76.8,74.0,29.91,ESE,112,0.0,-999.0,91,-99.99,,,0.00,Acu-Link.com,2013-08-21 06:47:00,
2013-08-21 03:02:00,76.6,73.8,29.92,East,90,0.0,-999.0,91,-99.99,,,0.00,Acu-Link.com,2013-08-21 07:02:00,
2013-08-21 03:18:00,76.5,73.7,29.91,SSE,157,0.0,-999.0,91,-99.99,,,0.00,Acu-Link.com,2013-08-21 07:18:00,
2013-08-21 03:33:00,76.3,73.5,29.90,SE,135,0.0,-999.0,91,-99.99,,,0.00,Acu-Link.com,2013-08-21 07:33:00,
2013-08-21 03:48:00,76.1,73.3,29.90,West,270,0.0,-999.0,91,-99.99,,,0.00,Acu-Link.com,2013-08-21 07:48:00,
2013-08-21 04:04:00,75.9,73.1,29.91,SSE,157,0.0,-999.0,91,-99.99,,,0.00,Acu-Link.com,2013-08-21 08:04:00,
2013-08-21 04:19:00,75.9,73.1,29.91,South,180,0.0,-999.0,91,-99.99,,,0.00,Acu-Link.com,2013-08-21 08:19:00,
2013-08-21 04:34:00,75.9,73.1,29.90,South,180,0.0,-999.0,91,-99.99,,,0.00,Acu-Link.com,2013-08-21 08:34:00,
2013-08-21 04:49:00,75.7,72.9,29.90,East,90,0.0,-999.0,91,-99.99,,,0.00,Acu-Link.com,2013-08-21 08:49:00,
2013-08-21 05:04:00,75.6,72.8,29.91,West,270,0.0,-999.0,91,-99.99,,,0.00,Acu-Link.com,2013-08-21 09:04:00,
2013-08-21 05:20:00,75.4,72.6,29.91,West,270,0.0,-999.0,91,-99.99,,,0.00,Acu-Link.com,2013-08-21 09:20:00,
2013-08-21 05:35:00,75.2,72.7,29.91,East,90,0.0,-999.0,92,-99.99,,,0.00,Acu-Link.com,2013-08-21 09:35:00,
2013-08-21 05:50:00,75.0,72.5,29.91,SE,135,2.2,-999.0,92,-99.99,,,0.00,Acu-Link.com,2013-08-21 09:50:00,
2013-08-21 06:05:00,75.0,72.5,29.92,East,90,0.0,-999.0,92,-99.99,,,0.00,Acu-Link.com,2013-08-21 10:05:00,
2013-08-21 06:21:00,75.2,72.7,29.92,NE,45,0.0,-999.0,92,-99.99,,,0.00,Acu-Link.com,2013-08-21 10:21:00,
2013-08-21 06:36:00,74.8,72.3,29.93,ESE,112,0.0,-999.0,92,-99.99,,,0.00,Acu-Link.com,2013-08-21 10:36:00,
2013-08-21 06:51:00,75.2,72.7,29.94,East,90,0.0,-999.0,92,-99.99,,,0.00,Acu-Link.com,2013-08-21 10:51:00,
2013-08-21 07:07:00,75.9,73.4,29.94,NE,45,0.0,-999.0,92,-99.99,,,0.00,Acu-Link.com,2013-08-21 11:07:00,
2013-08-21 07:22:00,77.7,75.2,29.95,NE,45,0.0,-999.0,92,-99.99,,,0.00,Acu-Link.com,2013-08-21 11:22:00,
2013-08-21 07:37:00,79.3,76.8,29.95,ESE,112,1.1,-999.0,92,-99.99,,,0.00,Acu-Link.com,2013-08-21 11:37:00,
2013-08-21 07:52:00,80.8,77.2,29.95,ENE,67,3.2,-999.0,89,-99.99,,,0.00,Acu-Link.com,2013-08-21 11:52:00,
2013-08-21 08:08:00,83.8,78.1,29.95,NNE,22,0.0,-999.0,83,-99.99,,,0.00,Acu-Link.com,2013-08-21 12:08:00,
2013-08-21 08:23:00,86.9,79.2,29.96,ESE,112,3.2,-999.0,78,-99.99,,,0.00,Acu-Link.com,2013-08-21 12:23:00,
2013-08-21 08:38:00,86.9,78.8,29.96,ESE,112,4.2,-999.0,77,-99.99,,,0.00,Acu-Link.com,2013-08-21 12:38:00,
2013-08-21 08:53:00,87.4,78.9,29.96,East,90,3.2,-999.0,76,-99.99,,,0.00,Acu-Link.com,2013-08-21 12:53:00,
2013-08-21 09:08:00,89.6,79.3,29.96,East,90,2.7,-999.0,72,-99.99,,,0.00,Acu-Link.com,2013-08-21 13:08:00,
2013-08-21 09:24:00,91.4,79.3,29.97,East,90,5.8,-999.0,68,-99.99,,,0.00,Acu-Link.com,2013-08-21 13:24:00,
2013-08-21 09:39:00,85.8,76.5,29.97,ESE,112,3.2,-999.0,74,-99.99,,,0.00,Acu-Link.com,2013-08-21 13:39:00,
2013-08-21 09:54:00,86.4,76.7,29.98,ESE,112,4.7,-999.0,73,-99.99,,,0.00,Acu-Link.com,2013-08-21 13:54:00,
2013-08-21 10:10:00,86.0,76.7,29.98,ESE,112,6.3,-999.0,74,-99.99,,,0.00,Acu-Link.com,2013-08-21 14:10:00,
2013-08-21 10:25:00,86.4,76.7,29.98,ESE,112,4.7,-999.0,73,-99.99,,,0.00,Acu-Link.com,2013-08-21 14:25:00,
2013-08-21 10:40:00,89.4,76.1,29.98,ESE,112,3.2,-999.0,65,-99.99,,,0.00,Acu-Link.com,2013-08-21 14:40:00,
2013-08-21 10:55:00,86.7,76.1,29.98,East,90,2.7,-999.0,71,-99.99,,,0.00,Acu-Link.com,2013-08-21 14:55:00,
2013-08-21 11:10:00,86.5,75.5,29.98,East,90,4.2,-999.0,70,-99.99,,,0.00,Acu-Link.com,2013-08-21 15:10:00,
2013-08-21 11:25:00,87.1,76.5,29.98,ESE,112,2.7,-999.0,71,-99.99,,,0.00,Acu-Link.com,2013-08-21 15:25:00,
2013-08-21 11:40:00,86.0,76.7,29.98,ESE,112,3.7,-999.0,74,-99.99,,,0.00,Acu-Link.com,2013-08-21 15:40:00,
2013-08-21 11:55:00,88.2,77.1,29.97,East,90,2.7,-999.0,70,-99.99,,,0.00,Acu-Link.com,2013-08-21 15:55:00,
2013-08-21 12:11:00,89.1,77.6,29.97,East,90,3.2,-999.0,69,-99.99,,,0.00,Acu-Link.com,2013-08-21 16:11:00,
2013-08-21 12:26:00,87.6,77.4,29.97,ESE,112,4.2,-999.0,72,-99.99,,,0.00,Acu-Link.com,2013-08-21 16:26:00,
2013-08-21 12:41:00,88.5,77.9,29.97,SE,135,5.8,-999.0,71,-99.99,,,0.00,Acu-Link.com,2013-08-21 16:41:00,
2013-08-21 12:56:00,88.7,77.6,29.96,ESE,112,7.8,-999.0,70,-99.99,,,0.00,Acu-Link.com,2013-08-21 16:56:00,
2013-08-21 13:11:00,88.3,78.1,29.95,ESE,112,8.9,-999.0,72,-99.99,,,0.00,Acu-Link.com,2013-08-21 17:11:00,
2013-08-21 13:26:00,88.7,77.6,29.95,SSW,202,5.3,-999.0,70,-99.99,,,0.00,Acu-Link.com,2013-08-21 17:26:00,
2013-08-21 13:41:00,88.9,77.8,29.96,ESE,112,6.8,-999.0,70,-99.99,,,0.00,Acu-Link.com,2013-08-21 17:41:00,
2013-08-21 13:56:00,88.7,76.3,29.94,SE,135,8.3,-999.0,67,-99.99,,,0.00,Acu-Link.com,2013-08-21 17:56:00,
2013-08-21 14:11:00,88.5,78.3,29.95,ESE,112,4.2,-999.0,72,-99.99,,,0.00,Acu-Link.com,2013-08-21 18:11:00,
2013-08-21 14:26:00,88.0,77.8,29.95,ESE,112,6.3,-999.0,72,-99.99,,,0.00,Acu-Link.com,2013-08-21 18:26:00,
2013-08-21 14:42:00,88.7,77.6,29.95,ESE,112,8.3,-999.0,70,-99.99,,,0.00,Acu-Link.com,2013-08-21 18:42:00,
2013-08-21 14:57:00,89.1,78.4,29.94,ESE,112,8.9,-999.0,71,-99.99,,,0.00,Acu-Link.com,2013-08-21 18:57:00,
2013-08-21 15:12:00,89.1,77.6,29.94,SE,135,8.3,-999.0,69,-99.99,,,0.00,Acu-Link.com,2013-08-21 19:12:00,
2013-08-21 15:27:00,88.7,77.2,29.93,ESE,112,5.8,-999.0,69,-99.99,,,0.00,Acu-Link.com,2013-08-21 19:27:00,
2013-08-21 15:42:00,89.2,78.1,29.92,ESE,112,7.3,-999.0,70,-99.99,,,0.00,Acu-Link.com,2013-08-21 19:42:00,
2013-08-21 15:57:00,88.7,76.3,29.92,ESE,112,4.2,-999.0,67,-99.99,,,0.00,Acu-Link.com,2013-08-21 19:57:00,
2013-08-21 16:12:00,88.5,75.2,29.92,ENE,67,3.2,-999.0,65,-99.99,,,0.00,Acu-Link.com,2013-08-21 20:12:00,
2013-08-21 16:27:00,88.2,76.7,29.91,ENE,67,5.8,-999.0,69,-99.99,,,0.00,Acu-Link.com,2013-08-21 20:27:00,
2013-08-21 16:42:00,87.6,78.3,29.90,NE,45,2.2,-999.0,74,-99.99,,,0.00,Acu-Link.com,2013-08-21 20:42:00,
2013-08-21 16:58:00,86.0,77.9,29.90,ESE,112,4.7,-999.0,77,-99.99,,,0.00,Acu-Link.com,2013-08-21 20:58:00,
2013-08-21 17:13:00,86.4,77.9,29.90,ESE,112,5.8,-999.0,76,-99.99,,,0.00,Acu-Link.com,2013-08-21 21:13:00,
2013-08-21 17:28:00,86.0,77.9,29.89,SE,135,4.2,-999.0,77,-99.99,,,0.00,Acu-Link.com,2013-08-21 21:28:00,
2013-08-21 17:43:00,85.6,77.9,29.89,ESE,112,4.7,-999.0,78,-99.99,,,0.00,Acu-Link.com,2013-08-21 21:43:00,
2013-08-21 17:58:00,85.6,77.1,29.89,ESE,112,5.3,-999.0,76,-99.99,,,0.00,Acu-Link.com,2013-08-21 21:58:00,
2013-08-21 18:14:00,86.4,77.5,29.89,NW,315,2.2,-999.0,75,-99.99,,,0.00,Acu-Link.com,2013-08-21 22:14:00,
2013-08-21 18:29:00,87.8,78.5,29.88,South,180,3.2,-999.0,74,-99.99,,,0.00,Acu-Link.com,2013-08-21 22:29:00,
2013-08-21 18:44:00,87.1,77.4,29.88,SSW,202,2.2,-999.0,73,-99.99,,,0.00,Acu-Link.com,2013-08-21 22:44:00,
2013-08-21 18:59:00,87.1,76.9,29.88,ESE,112,4.7,-999.0,72,-99.99,,,0.00,Acu-Link.com,2013-08-21 22:59:00,
2013-08-21 19:14:00,85.8,76.9,29.88,South,180,1.1,-999.0,75,-99.99,,,0.00,Acu-Link.com,2013-08-21 23:14:00,
2013-08-21 19:30:00,85.3,77.2,29.88,North,0,0.0,-999.0,77,-99.99,,,0.00,Acu-Link.com,2013-08-21 23:30:00,
2013-08-21 19:45:00,84.9,76.9,29.88,SE,135,2.2,-999.0,77,-99.99,,,0.00,Acu-Link.com,2013-08-21 23:45:00,
2013-08-21 20:00:00,82.9,76.8,29.89,SSW,202,0.0,-999.0,82,-99.99,,,0.00,Acu-Link.com,2013-08-22 00:00:00,
2013-08-21 20:16:00,81.7,76.0,29.88,SW,225,0.0,-999.0,83,-99.99,,,0.00,Acu-Link.com,2013-08-22 00:16:00,
2013-08-21 20:31:00,81.0,75.3,29.88,SW,225,0.0,-999.0,83,-99.99,,,0.00,Acu-Link.com,2013-08-22 00:31:00,
2013-08-21 20:46:00,80.6,75.3,29.88,SW,225,0.0,-999.0,84,-99.99,,,0.00,Acu-Link.com,2013-08-22 00:46:00,
2013-08-21 21:01:00,80.2,75.3,29.89,SW,225,0.0,-999.0,85,-99.99,,,0.00,Acu-Link.com,2013-08-22 01:01:00,
2013-08-21 21:17:00,79.9,75.0,29.90,SW,225,0.0,-999.0,85,-99.99,,,0.00,Acu-Link.com,2013-08-22 01:17:00,
2013-08-21 21:32:00,79.3,75.1,29.91,NE,45,0.0,-999.0,87,-99.99,,,0.00,Acu-Link.com,2013-08-22 01:32:00,
2013-08-21 21:47:00,78.8,74.9,29.92,ENE,67,2.2,-999.0,88,-99.99,,,0.00,Acu-Link.com,2013-08-22 01:47:00,
2013-08-21 22:02:00,78.4,74.5,29.92,South,180,0.0,-999.0,88,-99.99,,,0.00,Acu-Link.com,2013-08-22 02:02:00,
2013-08-21 22:17:00,78.3,74.4,29.93,East,90,0.0,-999.0,88,-99.99,,,0.00,Acu-Link.com,2013-08-22 02:17:00,
2013-08-21 22:33:00,78.6,75.1,29.93,SSE,157,0.0,-999.0,89,-99.99,,,0.00,Acu-Link.com,2013-08-22 02:33:00,
2013-08-21 22:48:00,78.6,74.7,29.92,SE,135,0.0,-999.0,88,-99.99,,,0.00,Acu-Link.com,2013-08-22 02:48:00,
2013-08-21 23:03:00,78.4,74.5,29.92,South,180,0.0,-999.0,88,-99.99,,,0.00,Acu-Link.com,2013-08-22 03:03:00,
2013-08-21 23:19:00,78.3,74.4,29.92,East,90,0.0,-999.0,88,-99.99,,,0.00,Acu-Link.com,2013-08-22 03:19:00,
2013-08-21 23:34:00,78.1,74.9,29.92,ESE,112,2.2,-999.0,90,-99.99,,,0.00,Acu-Link.com,2013-08-22 03:34:00,
2013-08-21 23:49:00,78.1,74.9,29.92,South,180,0.0,-999.0,90,-99.99,,,0.00,Acu-Link.com,2013-08-22 03:49:00,